Regional Weather Roundup
Issued by NWS Wakefield, VA

Current Version | Previous Version | Text Only | Print | Product List | Glossary Off
Versions: 1 2 3 4 5 6 7 8 9 10 11 12 13 14 15 16 17 18 19 20 21 22 23 24 25 26 27

000
ASUS41 KAKQ 140115
RWRAKQ

REGIONAL WEATHER ROUNDUP
NATIONAL WEATHER SERVICE WAKEFIELD VA
900 PM EDT THU MAY 13 2021

Note: "fair" indicates few or no clouds below 12,000 feet with no
significant weather and/or obstructions to visibility. * = Denotes
station may not report precipitation (e.g., rain,snow,etc.),
thunder or fog.

VAZ042-051-052>054-056-140200-
NORTHERN VIRGINIA

CITY           SKY/WX    TMP DP  RH WIND       PRES   REMARKS
WASH NATIONAL  PTCLDY    63  32  31 N8        30.22R
DULLES         PTCLDY    58  36  43 CALM      30.22R
FORT BELVOIR   PTCLDY    56  39  53 CALM      30.21R
QUANTICO       CLOUDY    59  46  62 W8        30.23R
FREDERICKSBRG* PTCLDY    57  39  49 CALM      30.22R
STAFFORD*      MOCLDY    53  33  47 CALM      30.26R
WARRENTON      MOCLDY    53  40  59 CALM      30.23R
CULPEPER*      CLEAR     51  39  62 CALM      30.24R
MANASSAS*      PTCLDY    59  37  44 N5        30.23R
LEESBURG*      PTCLDY    59  39  47 CALM      30.24R
WINCHESTER     PTCLDY    50  36  57 CALM      30.23R
FRONT ROYAL*   FAIR      57  36  44 CALM      30.23S
LURAY*         FAIR      52  39  62 NE3       30.24R
$$

VAZ048-049-060>072-079>083-140200-
CENTRAL AND SOUTH CENTRAL VIRGINIA

CITY           SKY/WX    TMP DP  RH WIND       PRES   REMARKS
RICHMOND       CLEAR     56  38  50 CALM      30.22R
CHESTERFIELD*  FAIR      55  36  48 CALM      30.23R
PETERSBURG*    PTCLDY    49  40  71 CALM      30.24R
HANOVER        CLEAR     54  38  54 CALM      30.23R
TAPPAHANNOCK*  CLEAR     51  41  67 CALM      30.23S
QUINTON*       FAIR      55  38  53 CALM      30.22S
CHARLOTTSVILLE PTCLDY    59  32  36 CALM      30.23R
GORDONSVILLE*  FAIR      53  38  56 CALM      30.22R
ORANGE*        CLEAR     48  41  76 CALM      30.23R
LOUISA*        CLEAR     47  39  73 CALM      30.27R
BUMPASS*       FAIR      54  34  46 CALM      30.22S
FARMVILLE*     CLEAR     51  37  58 CALM      30.22R
CREWE*         FAIR      49  35  59 CALM      30.23R
FORT PICKETT*  FAIR      56  36  47 CALM      30.23R
CHASE CITY*    FAIR      52  38  60 CALM      30.23R
CLARKSVILLE*   CLOUDY    55  36  47 CALM      30.23R
SOUTH HILL*    CLEAR     52  36  54 CALM      30.29R
LAWRENCEVILLE* FAIR      56  36  46 CALM      30.24R
EMPORIA*       PTCLDY    56  38  50 CALM      30.25R
$$

VAZ088>098-140200-
SOUTHEAST VIRGINIA

CITY           SKY/WX    TMP DP  RH WIND       PRES   REMARKS
NORFOLK        CLEAR     59  43  55 E3        30.23R
VIRGINIA BEACH CLEAR     57  47  69 CALM      30.23R
NORFOLK NAVAL  CLEAR     57  40  52 SE6       30.24R
WEST POINT*    CLEAR     52  40  64 CALM      30.22S
SALUDA*        FAIR      54  39  58 CALM      30.22S
NEWPORT NEWS   CLEAR     53  42  66 E3        30.23R
LANGLEY AFB    CLEAR     58  48  69 SE7       30.22R
FORT EUSTIS    NOT AVBL
WILLIAMSBURG*  CLEAR     57  41  54 CALM      30.24R
HR EXEC AP*    FAIR      43  40  89 CALM      30.24R
FRANKLIN*      CLEAR     50  40  68 CALM      30.24R
US460-WAKEFLD  CLEAR     53  42  66 CALM      30.23R
$$

VAZ020-022-025-037-045-140200-
WEST CENTRAL AND SOUTHWEST VIRGINIA

CITY           SKY/WX    TMP DP  RH WIND       PRES   REMARKS
STAUNTON*      MOCLDY    50  36  59 CALM      30.26R
WAYNESBORO*    CLOUDY    55  32  41 CALM      30.24R
HOT SPRINGS VA CLOUDY    51  26  37 E3        30.27R
LYNCHBURG      PTCLDY    54  36  50 CALM      30.23R
DANVILLE       CLEAR     51  40  65 CALM      30.23R
SOUTH BOSTON*  FAIR      53  36  53 CALM      30.23R
MARTINSVILLE   CLEAR     52  40  64 CALM      30.25S
ROANOKE        CLOUDY    61  35  37 S5        30.24R
BLACKSBURG     CLOUDY    54  38  54 CALM      30.27R
DUBLIN*        NOT AVBL
MARION*        CLOUDY    50  35  56 CALM      30.28R
HILLSVILLE*    NOT AVBL
RICHLANDS*     CLOUDY    53  29  39 CALM      30.27R
WISE*          CLOUDY    52  32  46 CALM      30.28R
ABINGDON*      CLOUDY    55  26  33 CALM      30.25R
$$

MDZ021>025-VAZ099-100-140200-
SOUTHERN MARYLAND AND THE DELMARVA PENINSULA

CITY           SKY/WX    TMP DP  RH WIND       PRES   REMARKS
PATUXENT RIVER PTCLDY    53  47  79 SW3       30.21R
BAY BRIDGE APT NOT AVBL
LEONARDTOWN    NOT AVBL
DOVER          CLEAR     58  33  38 SW3       30.18R
GEORGETOWN     CLEAR     57  40  52 SW7       30.21R
EASTON         CLEAR     61  37  41 CALM      30.25R
CAMBRIDGE      NOT AVBL
SALISBURY      PTCLDY    53  41  63 SE5       30.22R
TANGIER        NOT AVBL
OCEAN CITY     CLEAR     55  42  61 CALM      30.23R
WALLOPS ISLAND CLEAR     54  46  74 S5        30.23R
ACCOMACK*      CLEAR     52 -42   1 SE6       30.23R
$$

NCZ012>017-030>032-140200-
NORTH CENTRAL AND EASTERN NORTH CAROLINA

CITY           SKY/WX    TMP DP  RH WIND       PRES   REMARKS
ROANOKE RAPIDS NOT AVBL
RALEIGH        PTCLDY    58  41  53 CALM      30.22R
ELIZABETH CITY CLEAR     58  44  60 E8        30.23R
AHOSKIE*       CLEAR     54  42  65 CALM      30.23R
EDENTON*       CLEAR     58  46  62 E3        30.23R
CURRITUCK*     NOT AVBL
KILL DEVIL HLS CLEAR     56  49  78 CALM      30.22R
MANTEO         CLEAR     54  47  78 CALM      30.23S
CAPE HATTERAS  MOCLDY    59  47  64 NE5       30.21R
TARBORO*       FAIR      53  49  86 CALM      30.22R
GOLDSBORO      NOT AVBL
WASHINGTON     NOT AVBL
GREENVILLE     NOT AVBL
NEW BERN       CLEAR     60  41  49 E6        30.22R
WILMINGTON     CLOUDY    64  40  41 E7        30.19R
$$

VAZ048-140200-
ELSEWHERE

CITY           SKY/WX    TMP DP  RH WIND       PRES   REMARKS
HARRISBURG PA  PTCLDY    57  39  51 NW6       30.20R
BALTIMORE      PTCLDY    63  32  31 CALM      30.21R
ANNAPOLIS      CLEAR     60  43  53 NW3       30.21R
ANDREWS AFB    PTCLDY    60  33  36 CALM      30.21R
PHILADELPHIA   PTCLDY    62  35  36 SE8       30.19R
GREENSBORO     PTCLDY    60  33  36 NE5       30.22R
ROCKY MOUNT    MOCLDY    56  43  61 CALM      30.22R
$$

VAZ100-140200-
MARINE

STATION/POSITION TIME  TEMP    WIND        PRES    WAVE   SWELL
                       AIR SEA DIR/SP/G            HT/PER HT/PER
                 (UTC) (F)     (DEG/KT/KT) (MB)    (FT/S) (FT/S)
CAPE MAY NJ      0030   56 60  160/  8/ 10 1022.8R
LEWES DE         0030   59 61  160/  5/  8 1023.2R
15NM E FENWICK I 0050                        N/A     1/13
OCEAN-CITY-INLET 0030   58 60  230/  5/  6 1024.5R
44089 WALLOPS IS 0056      56                N/A     1/14
WACHAPREAGUE VA  0030   58 65  170/  5/  7 1023.6R
THOMAS POINT MD  0100   62 62  210/  6/  7 1024.1R
GOOSES REEF MD   0048   59 62              1024.5R   0
COVE POINT MD    0030   61      CALM  /  1 1023.0R
SOLOMONS ISLAND  0030   61 65  250/  3/  3 1022.9R
BISHOPS HEAD MD  0030   63 66  350/  2/  4 1022.8R
PINEY POINT MD   0030          160/  4/  4   N/A
CAMBRIDGE MD     0030   65 66  260/  2/  3 1022.8R
LEWISETTA VA     0030   62 63  270/  1/  2 1023.2R
RAPPAHANNOCK LGT 0030          130/  9/ 11 1023.9R
YORK RVR RNG VA  0030   61     140/ 12/ 13   N/A
YORKTOWN VA      0030   62 64  150/  7/  9 1023.0R
DOMINION TERM VA 0030   63     350/  1/  6 1023.6R
KIPTOPEKE VA     0030      63  120/  6/  8   N/A
CAPE HENRY VA    0030   58     120/  4/  7 1024.0R
WILLOUBY STN VA  0030   61     110/ 10/ 12 1022.9R
S CRANEY ISL VA  0030   63     100/  5/  6 1023.3R
CAPE HENRY BUOY  0056      60                N/A     2/ 8
64NM E OF VA BCH 0050      61   40/ 10/ 12 1023.4R   2/ 8   2/ 8
DUCK PIER NC     0030   59      40/  8/  9 1023.4R
44100 DUCK FRF   0026      60                N/A     2/ 7   2/13
44056 DUCK FRF   0056      60                N/A     2/13   2/13
OREGON INLET NC  0030   59 62   30/  4/  5 1023.3R
HATTERAS NC      0030   61 62   40/  7/ 11 1022.9R
CAPE LOOKOUT NC  0100   64      40/ 20/ 23 1022.9R
$$



USA.gov is the U.S. government's official web portal to all federal, state and local government web resources and services.